Regional Weather Roundup
Issued by NWS Charleston, SC

Current Version | Previous Version | Graphics & Text | Print | Product List | Glossary On
Versions: 1 2 3 4 5 6 7 8 9 10 11 12 13 14 15 16 17 18 19 20 21 22 23 24 25 26 27 28 29 30 31 32 33 34 35 36 37 38 39 40 41 42 43 44 45 46 47 48 49 50
000
ASUS42 KCHS 250625
RWRCHS

REGIONAL WEATHER ROUNDUP
NATIONAL WEATHER SERVICE CHARLESTON SC
200 AM EDT FRI APR 25 2014

NOTE: "FAIR" INDICATES FEW OR NO CLOUDS BELOW 12,000 FEET WITH NO
SIGNIFICANT WEATHER AND/OR OBSTRUCTIONS TO VISIBILITY.

NOT ALL STATIONS ARE QUALITY CONTROLLED BY THE NATIONAL
WEATHER SERVICE. USE DATA WITH CAUTION...ESPECIALLY
DEWPOINT OBSERVATIONS.

SCZ027-030-031-034>040-042>050-250700-
...SOUTH CAROLINA...

CITY           SKY/WX    TMP DP  RH WIND       PRES   REMARKS
N CHARLESTON   FAIR      62  59  90 CALM      29.96F
6HR MIN TEMP:  62; 6HR MAX TEMP:  67;

WATERFRONT PRK   N/A     64 N/A N/A CALM        N/A
FORT JOHNSON     N/A     64  64 100 CALM      30.01F
MOUNT PLEASANT LGT RAIN  61  61 100 CALM      29.96F
JOHNS ISLAND   PTCLDY    63  61  94 CALM      29.96F
PINOPOLIS        N/A     61  57  88 E5        29.89F
MONCKS CORNER  FAIR      61  61 100 CALM      29.97F
SUMMERVILLE    NOT AVBL
BEAUFORT MCAS  MOCLDY    63  61  93 SE3       29.95F
6HR MIN TEMP:  62; 6HR MAX TEMP:  68;

BEAUFORT ARPT  FAIR      63  63 100 CALM      29.93F
HILTON HEAD IS FAIR      64  63  94 E3        29.96F FOG
GEORGETOWN     NOT AVBL
WALTERBORO     FAIR      57 N/A N/A E3        29.96F
ORANGEBURG     FAIR      60  55  83 VRB5      29.96F
6HR MIN TEMP:  60; 6HR MAX TEMP:  73;

BARNWELL       FAIR      61  57  88 SE3       29.95F
AIKEN          FAIR      61  59  94 CALM      29.98S
MANNING        FAIR      59 N/A N/A CALM      29.95F
KINGSTREE      NOT AVBL
COLUMBIA       FAIR      61  56  83 E5        29.95F
6HR MIN TEMP:  61; 6HR MAX TEMP:  74;

SUMTER         FAIR      58  55  89 E1        29.94F
6HR MIN TEMP:  58; 6HR MAX TEMP:  72;

FLORENCE       FAIR      56  53  90 E3        29.97F
6HR MIN TEMP:  56; 6HR MAX TEMP:  69;

MYRTLE BEACH   FAIR      61  57  88 CALM      29.97F
N MYRTLE BEACH FAIR      62  59  90 E5        29.98F
6HR MIN TEMP:  59; 6HR MAX TEMP:  63;


$$

GAZ063-065-086>088-099>101-113>116-118-119-134-136>141-150-250700-
...GEORGIA...

CITY           SKY/WX    TMP DP  RH WIND       PRES   REMARKS
SAVANNAH ARPT  FAIR      66  62  87 SE6       29.94F
6HR MIN TEMP:  65; 6HR MAX TEMP:  70;

HUNTER AAF     FAIR      64  64  99 E5        29.92F
6HR MIN TEMP:  64; 6HR MAX TEMP:  67;

FORT STEWART   FAIR      63  63 100 SE5       29.91F
6HR MIN TEMP:  63; 6HR MAX TEMP:  69;

STATESBORO     NOT AVBL
SYLVANIA       FAIR      63  60  91 CALM      29.94F FOG
CLAXTON        MOCLDY   N/A N/A N/A CALM      29.92F HAZE
THOMSON        FAIR      63  62  98 CALM      29.96F
AUGUSTA-BUSH   MOCLDY    61  58  90 CALM      29.94F
6HR MIN TEMP:  61; 6HR MAX TEMP:  72; 6HR PCP: TRACE;

AUGUSTA-DANIEL FAIR      64  60  87 SE7       29.95F
SWAINSBORO     MOCLDY    63  63 100 SE5       29.93S
VIDALIA        CLOUDY    64  64 100 S3        29.93R FOG
ALMA           FAIR      66  63  90 S3        29.92F FOG
6HR MIN TEMP:  66; 6HR MAX TEMP:  75;

WAYCROSS       NOT AVBL
JESUP          CLOUDY    64  64 100 CALM      29.93F FOG
BRUNSWICK      FAIR      70  68  94 CALM      29.95S
SAINT SIMONS   FAIR      69  67  93 S6        29.94F
6HR MIN TEMP:  69; 6HR MAX TEMP:  71;


$$

SCZ027-028-034-036>038-045-046-048>050-GAZ119-141-250700-
...LAKE AND SUPPLEMENTAL COASTAL OBSERVATIONS...

STATION/POSITION TIME  TEMP    WIND        PRES    WAVE   SWELL
                       AIR SEA DIR/SP/G            HT/PER HT/PER/DIR
                 (UTC) (F)     (DEG/KT/KT) (MB)    (FT/S) (FT/S/D)
UPR LAKE MARION  NOT AVBL
WINYAH BAY       0600   62      20/  1     1015.0S
LAKE MURRAY      0500   63     130/  4/  7 1013.9F
ACE BASIN NERRS  0600   62        CALM     1014.0S
FORT PULASKI     NOT AVBL
SAPELO ISLAND    0600   71     150/  9     1014.0S

$$

ANZ835-935-AMZ111-154-330-350-352-354-374-450-454-472-250700-
...C-MAN AND BUOY OBSERVATIONS...

STATION/POSITION TIME  TEMP    WIND        PRES    WAVE   SWELL
                       AIR SEA DIR/SP/G            HT/PER HT/PER/DIR
                 (UTC) (F)     (DEG/KT/KT) (MB)    (FT/S) (FT/S/D)
FOLLY BEACH CMAN 0600   65      70/  3/  3 1014.7F
BUOY 41004       0600   73 71  140/  6/  6 1014.1F   3/ 5   3/ 5
BUOY 41008       0600   71 68  160/ 16/ 19 1013.6F   2/ 6   2/ 80/ 8
5E ST. MARYS GA  0600      69                N/A     2/ 3
FRYING PAN BUOY  0600   70 68  160/ 10/ 12 1015.1F   4/ 8   3/ 80/ 8
BUOY 41025       NOT AVBL
CAPE LOOKOUT NC  0600   62     100/  4/  4 1016.4F
BUOY 41002       NOT AVBL
BUOY 41010       0600   75 76  140/ 12/ 14 1015.6S   3/ 9   2/ 60/ 9
BUOY 41012       NOT AVBL
ST AUGUSTINE FL  0600   71     200/  3/  4 1014.9F
CAPERS NEARSHORE NOT AVBL
FRIPP NEARSHORE  0500   65      90/  6/  6   N/A


$$


USA.gov is the U.S. government's official web portal to all federal, state and local government web resources and services.